ProjectID,Date,Electric Generation,Electric Utility Import,Facility Electric Load
,YYYY-MM-DD,kW,kW,kW
355,2016-04-01,24.909999999999997,,24.909999999999997
355,2016-04-02,15.649999999999999,,15.649999999999999
355,2016-04-03,13.123333333333333,,13.123333333333333
355,2016-04-04,0.0,,0.0
355,2016-04-05,0.0,,0.0
355,2016-04-06,0.0,,0.0
355,2016-04-07,0.0,,0.0
355,2016-04-08,0.0,,0.0
355,2016-04-09,0.0,,0.0
355,2016-04-10,0.0,,0.0
355,2016-04-11,0.0,,0.0
355,2016-04-12,0.0,,0.0
355,2016-04-13,0.0,,0.0
355,2016-04-14,0.0,,0.0
355,2016-04-15,0.0,,0.0
355,2016-04-16,0.0,,0.0
355,2016-04-17,0.0,,0.0
355,2016-04-18,0.0,,0.0
355,2016-04-19,0.0,,0.0
355,2016-04-20,0.0,,0.0
355,2016-04-21,89.82666666666665,,89.82666666666665
355,2016-04-22,60.26333333333332,,60.26333333333332
355,2016-04-23,71.13666666666666,,71.13666666666666
355,2016-04-24,95.66666666666667,,95.66666666666667
355,2016-04-25,60.86333333333332,,60.86333333333332
355,2016-04-26,15.769999999999998,,15.769999999999998
355,2016-04-27,92.48333333333335,,92.48333333333335
355,2016-04-28,56.20333333333334,,56.20333333333334
355,2016-04-29,44.38666666666666,,44.38666666666666
355,2016-04-30,50.046666666666674,,50.046666666666674
355,2016-05-01,19.67,,19.67
355,2016-05-02,27.593333333333334,,27.593333333333334
355,2016-05-03,25.653333333333332,,25.653333333333332
355,2016-05-04,22.92,,22.92
355,2016-05-05,59.87333333333333,,59.87333333333333
355,2016-05-06,26.996666666666666,,26.996666666666666
355,2016-05-07,37.76,,37.76
355,2016-05-08,59.80333333333331,,59.80333333333331
355,2016-05-09,71.55666666666667,,71.55666666666667
355,2016-05-10,80.19333333333333,,80.19333333333333
355,2016-05-11,95.07333333333334,,95.07333333333334
355,2016-05-12,97.46666666666664,,97.46666666666664
355,2016-05-13,17.753333333333334,,17.753333333333334
355,2016-05-14,69.61999999999999,,69.61999999999999
355,2016-05-15,57.680000000000014,,57.680000000000014
355,2016-05-16,54.02333333333332,,54.02333333333332
355,2016-05-17,34.51666666666667,,34.51666666666667
355,2016-05-18,48.75000000000001,,48.75000000000001
355,2016-05-19,49.336666666666666,,49.336666666666666
355,2016-05-20,51.853333333333325,,51.853333333333325
355,2016-05-21,24.37666666666667,,24.37666666666667
355,2016-05-22,33.943333333333335,,33.943333333333335
355,2016-05-23,53.02,,53.02
355,2016-05-24,30.656666666666666,,30.656666666666666
355,2016-05-25,53.20999999999999,,53.20999999999999
355,2016-05-26,44.28,,44.28
355,2016-05-27,36.57666666666667,,36.57666666666667
355,2016-05-28,50.21333333333333,,50.21333333333333
355,2016-05-29,48.77333333333333,,48.77333333333333
355,2016-05-30,41.11666666666666,,41.11666666666666
355,2016-05-31,53.043333333333344,,53.043333333333344
355,2016-06-01,54.98333333333332,,54.98333333333332
355,2016-06-02,47.653333333333336,,47.653333333333336
355,2016-06-03,16.643333333333334,,16.643333333333334
355,2016-06-04,46.25000000000001,,46.25000000000001
355,2016-06-05,7.420000000000001,,7.420000000000001
355,2016-06-06,55.04,,55.04
355,2016-06-07,30.793333333333333,,30.793333333333333
355,2016-06-08,0.0,,0.0
355,2016-06-09,52.43000000000001,,52.43000000000001
355,2016-06-10,93.43333333333335,,93.43333333333335
355,2016-06-11,0.0,,0.0
355,2016-06-12,78.62000000000002,,78.62000000000002
355,2016-06-13,90.09333333333335,,90.09333333333335
355,2016-06-14,0.0,,0.0
355,2016-06-15,106.95333333333333,,106.95333333333333
355,2016-06-16,69.18,,69.18
355,2016-06-17,0.0,,0.0
355,2016-06-18,60.52,,60.52
355,2016-06-19,96.79666666666668,,96.79666666666668
355,2016-06-20,87.99666666666667,,87.99666666666667
355,2016-06-21,97.55999999999999,,97.55999999999999
355,2016-06-22,96.93666666666668,,96.93666666666668
355,2016-06-23,77.38333333333334,,77.38333333333334
355,2016-06-24,101.19333333333334,,101.19333333333334
355,2016-06-25,89.18666666666667,,89.18666666666667
355,2016-06-26,90.53333333333332,,90.53333333333332
355,2016-06-27,54.550000000000004,,54.550000000000004
355,2016-06-28,31.10666666666667,,31.10666666666667
355,2016-06-29,80.45,,80.45
355,2016-06-30,91.91666666666667,,91.91666666666667
355,2016-07-01,64.79333333333334,,64.79333333333334
355,2016-07-02,97.44333333333331,,97.44333333333331
355,2016-07-03,92.62666666666665,,92.62666666666665
355,2016-07-04,99.65666666666665,,99.65666666666665
355,2016-07-05,77.42,,77.42
355,2016-07-06,81.42000000000002,,81.42000000000002
355,2016-07-07,49.056666666666665,,49.056666666666665
355,2016-07-08,55.346666666666664,,55.346666666666664
355,2016-07-09,11.793333333333335,,11.793333333333335
355,2016-07-10,66.62333333333332,,66.62333333333332
355,2016-07-11,74.27,,74.27
355,2016-07-12,66.08333333333334,,66.08333333333334
355,2016-07-13,72.92666666666666,,72.92666666666666
355,2016-07-14,41.489999999999995,,41.489999999999995
355,2016-07-15,65.99666666666666,,65.99666666666666
355,2016-07-16,65.14,,65.14
355,2016-07-17,75.45333333333333,,75.45333333333333
355,2016-07-18,61.6,,61.6
355,2016-07-19,78.03333333333335,,78.03333333333335
355,2016-07-20,75.62333333333332,,75.62333333333332
355,2016-07-21,81.38666666666666,,81.38666666666666
355,2016-07-22,69.47333333333333,,69.47333333333333
355,2016-07-23,75.92,,75.92
355,2016-07-24,75.71,,75.71
355,2016-07-25,48.76666666666666,,48.76666666666666
355,2016-07-26,81.02333333333333,,81.02333333333333
355,2016-07-27,94.06,,94.06
355,2016-07-28,74.26333333333332,,74.26333333333332
355,2016-07-29,71.95333333333333,,71.95333333333333
355,2016-07-30,54.28999999999999,,54.28999999999999
355,2016-07-31,17.029999999999998,,17.029999999999998
355,2016-08-01,25.30333333333333,,25.30333333333333
355,2016-08-02,65.34333333333335,,65.34333333333335
355,2016-08-03,81.06999999999998,,81.06999999999998
355,2016-08-04,89.66333333333334,,89.66333333333334
355,2016-08-05,80.38333333333334,,80.38333333333334
355,2016-08-06,69.23,,69.23
355,2016-08-07,73.40666666666665,,73.40666666666665
355,2016-08-08,60.67666666666667,,60.67666666666667
355,2016-08-09,75.42333333333335,,75.42333333333335
355,2016-08-10,32.18000000000001,,32.18000000000001
355,2016-08-11,58.13333333333333,,58.13333333333333
355,2016-08-12,63.953333333333326,,63.953333333333326
355,2016-08-13,54.97666666666667,,54.97666666666667
355,2016-08-14,53.629999999999995,,53.629999999999995
355,2016-08-15,68.51333333333334,,68.51333333333334
355,2016-08-16,39.626666666666665,,39.626666666666665
355,2016-08-17,63.31666666666666,,63.31666666666666
355,2016-08-18,63.109999999999985,,63.109999999999985
355,2016-08-19,61.050000000000004,,61.050000000000004
355,2016-08-20,56.54,,56.54
355,2016-08-21,34.08333333333333,,34.08333333333333
355,2016-08-22,64.52666666666667,,64.52666666666667
355,2016-08-23,64.78666666666666,,64.78666666666666
355,2016-08-24,62.00333333333333,,62.00333333333333
355,2016-08-25,41.54,,41.54
355,2016-08-26,50.57999999999999,,50.57999999999999
355,2016-08-27,57.44,,57.44
355,2016-08-28,59.59333333333333,,59.59333333333333
355,2016-08-29,58.149999999999984,,58.149999999999984
355,2016-08-30,58.18,,58.18
355,2016-08-31,24.743333333333336,,24.743333333333336
355,2016-09-01,52.00000000000001,,52.00000000000001
355,2016-09-02,66.68666666666668,,66.68666666666668
355,2016-09-03,62.44666666666668,,62.44666666666668
355,2016-09-04,71.4,,71.4
355,2016-09-05,62.97333333333333,,62.97333333333333
355,2016-09-06,46.19999999999999,,46.19999999999999
355,2016-09-07,57.83666666666667,,57.83666666666667
355,2016-09-08,58.38999999999999,,58.38999999999999
355,2016-09-09,41.339999999999996,,41.339999999999996
355,2016-09-10,44.27333333333333,,44.27333333333333
355,2016-09-11,55.63666666666666,,55.63666666666666
355,2016-09-12,71.08666666666666,,71.08666666666666
355,2016-09-13,63.73333333333334,,63.73333333333334
355,2016-09-14,52.653333333333336,,52.653333333333336
355,2016-09-15,70.52333333333335,,70.52333333333335
355,2016-09-16,67.78,,67.78
355,2016-09-17,45.64000000000001,,45.64000000000001
355,2016-09-18,26.820000000000004,,26.820000000000004
355,2016-09-19,30.196666666666662,,30.196666666666662
355,2016-09-20,53.98,,53.98
355,2016-09-21,56.84999999999999,,56.84999999999999
355,2016-09-22,61.73,,61.73
355,2016-09-23,42.50999999999999,,42.50999999999999
355,2016-09-24,64.98333333333332,,64.98333333333332
355,2016-09-25,64.50333333333334,,64.50333333333334
355,2016-09-26,55.97666666666666,,55.97666666666666
355,2016-09-27,60.25666666666666,,60.25666666666666
355,2016-09-28,37.26666666666667,,37.26666666666667
355,2016-09-29,30.94333333333333,,30.94333333333333
355,2016-09-30,16.52333333333333,,16.52333333333333
355,2016-10-01,22.653333333333336,,22.653333333333336
355,2016-10-02,21.099999999999998,,21.099999999999998
355,2016-10-03,43.87666666666667,,43.87666666666667
355,2016-10-04,29.410000000000007,,29.410000000000007
355,2016-10-05,62.55333333333332,,62.55333333333332
355,2016-10-06,60.660000000000004,,60.660000000000004
355,2016-10-07,59.53999999999999,,59.53999999999999
355,2016-10-08,29.076666666666668,,29.076666666666668
355,2016-10-09,29.63333333333333,,29.63333333333333
355,2016-10-10,61.43666666666667,,61.43666666666667
355,2016-10-11,59.393333333333345,,59.393333333333345
355,2016-10-12,54.14333333333334,,54.14333333333334
355,2016-10-13,20.84333333333333,,20.84333333333333
355,2016-10-14,57.620000000000005,,57.620000000000005
355,2016-10-15,56.13000000000002,,56.13000000000002
355,2016-10-16,42.879999999999995,,42.879999999999995
355,2016-10-17,26.963333333333328,,26.963333333333328
355,2016-10-18,48.96999999999999,,48.96999999999999
355,2016-10-19,46.693333333333335,,46.693333333333335
355,2016-10-20,20.89,,20.89
355,2016-10-21,33.72,,33.72
355,2016-10-22,10.823333333333332,,10.823333333333332
355,2016-10-23,43.89333333333334,,43.89333333333334
355,2016-10-24,31.986666666666668,,31.986666666666668
355,2016-10-25,25.37666666666667,,25.37666666666667
355,2016-10-26,42.019999999999996,,42.019999999999996
355,2016-10-27,1.4166666666666667,,1.4166666666666667
355,2016-10-28,15.699999999999998,,15.699999999999998
355,2016-10-29,31.716666666666665,,31.716666666666665
355,2016-10-30,13.176666666666664,,13.176666666666664
355,2016-10-31,45.336666666666666,,45.336666666666666
355,2016-11-01,43.79333333333333,,43.79333333333333
355,2016-11-02,36.97333333333333,,36.97333333333333
355,2016-11-03,17.610000000000003,,17.610000000000003
355,2016-11-04,43.779999999999994,,43.779999999999994
355,2016-11-05,21.380000000000006,,21.380000000000006
355,2016-11-06,42.849999999999994,,42.849999999999994
355,2016-11-07,41.23666666666667,,41.23666666666667
355,2016-11-08,39.803333333333335,,39.803333333333335
355,2016-11-09,7.916666666666669,,7.916666666666669
355,2016-11-10,39.546666666666674,,39.546666666666674
355,2016-11-11,35.75333333333334,,35.75333333333334
355,2016-11-12,39.309999999999995,,39.309999999999995
355,2016-11-13,39.120000000000005,,39.120000000000005
355,2016-11-14,37.72666666666667,,37.72666666666667
355,2016-11-15,5.53,,5.53
355,2016-11-16,34.5,,34.5
355,2016-11-17,24.816666666666666,,24.816666666666666
355,2016-11-18,34.72666666666667,,34.72666666666667
355,2016-11-19,33.276666666666664,,33.276666666666664
355,2016-11-20,19.563333333333333,,19.563333333333333
355,2016-11-21,10.883333333333333,,10.883333333333333
355,2016-11-22,24.50666666666667,,24.50666666666667
355,2016-11-23,34.38333333333333,,34.38333333333333
355,2016-11-24,8.223333333333334,,8.223333333333334
355,2016-11-25,11.166666666666664,,11.166666666666664
355,2016-11-26,15.006666666666666,,15.006666666666666
355,2016-11-27,21.650000000000002,,21.650000000000002
355,2016-11-28,30.513333333333332,,30.513333333333332
355,2016-11-29,1.8666666666666665,,1.8666666666666665
355,2016-11-30,4.8966666666666665,,4.8966666666666665
355,2016-12-01,10.66,,10.66
355,2016-12-02,17.243333333333336,,17.243333333333336
355,2016-12-03,17.32,,17.32
355,2016-12-04,30.033333333333335,,30.033333333333335
355,2016-12-05,1.2833333333333332,,1.2833333333333332
355,2016-12-06,15.446666666666665,,15.446666666666665
355,2016-12-07,8.786666666666667,,8.786666666666667
355,2016-12-08,20.943333333333335,,20.943333333333335
355,2016-12-09,27.16,,27.16
355,2016-12-10,23.986666666666668,,23.986666666666668
355,2016-12-11,17.35666666666667,,17.35666666666667
355,2016-12-12,0.5033333333333333,,0.5033333333333333
355,2016-12-13,3.2799999999999994,,3.2799999999999994
355,2016-12-14,1.4633333333333332,,1.4633333333333332
355,2016-12-15,4.360000000000001,,4.360000000000001
355,2016-12-16,6.906666666666666,,6.906666666666666
355,2016-12-17,0.006666666666666667,,0.006666666666666667
355,2016-12-18,0.43,,0.43
355,2016-12-19,3.3000000000000003,,3.3000000000000003
355,2016-12-20,4.506666666666667,,4.506666666666667
355,2016-12-21,3.66,,3.66
355,2016-12-22,6.390000000000001,,6.390000000000001
355,2016-12-23,22.263333333333332,,22.263333333333332
355,2016-12-24,8.746666666666666,,8.746666666666666
355,2016-12-25,28.37,,28.37
355,2016-12-26,5.713333333333334,,5.713333333333334
355,2016-12-27,25.62666666666666,,25.62666666666666
355,2016-12-28,13.736666666666665,,13.736666666666665
355,2016-12-29,0.03666666666666667,,0.03666666666666667
355,2016-12-30,0.13666666666666666,,0.13666666666666666
355,2016-12-31,0.18666666666666668,,0.18666666666666668
355,2017-01-01,1.51,,1.51
355,2017-01-02,3.043333333333333,,3.043333333333333
355,2017-01-03,3.1966666666666668,,3.1966666666666668
355,2017-01-04,13.556666666666665,,13.556666666666665
355,2017-01-05,21.220000000000002,,21.220000000000002
355,2017-01-06,28.31,,28.31
355,2017-01-07,12.009999999999998,,12.009999999999998
355,2017-01-08,22.843333333333334,,22.843333333333334
355,2017-01-09,21.356666666666666,,21.356666666666666
355,2017-01-10,20.479999999999997,,20.479999999999997
355,2017-01-11,24.423333333333336,,24.423333333333336
355,2017-01-12,7.019999999999999,,7.019999999999999
355,2017-01-13,33.050000000000004,,33.050000000000004
355,2017-01-14,15.219999999999999,,15.219999999999999
355,2017-01-15,34.21333333333333,,34.21333333333333
355,2017-01-16,32.29,,32.29
355,2017-01-17,5.560000000000001,,5.560000000000001
355,2017-01-18,9.593333333333334,,9.593333333333334
355,2017-01-19,23.153333333333332,,23.153333333333332
355,2017-01-20,10.916666666666666,,10.916666666666666
355,2017-01-21,29.790000000000006,,29.790000000000006
355,2017-01-22,26.813333333333333,,26.813333333333333
355,2017-01-23,8.859999999999998,,8.859999999999998
355,2017-01-24,0.49,,0.49
355,2017-01-25,2.35,,2.35
355,2017-01-26,5.946666666666666,,5.946666666666666
355,2017-01-27,14.023333333333332,,14.023333333333332
355,2017-01-28,12.99,,12.99
355,2017-01-29,20.396666666666665,,20.396666666666665
355,2017-01-30,35.86666666666667,,35.86666666666667
355,2017-01-31,4.1466666666666665,,4.1466666666666665
355,2017-02-01,8.013333333333334,,8.013333333333334
355,2017-02-02,29.48,,29.48
355,2017-02-03,21.679999999999996,,21.679999999999996
355,2017-02-04,46.650000000000006,,46.650000000000006
355,2017-02-05,26.73333333333333,,26.73333333333333
355,2017-02-06,35.10666666666667,,35.10666666666667
355,2017-02-07,5.356666666666668,,5.356666666666668
355,2017-02-08,34.129999999999995,,34.129999999999995
355,2017-02-09,0.006666666666666667,,0.006666666666666667
355,2017-02-10,0.1366666666666667,,0.1366666666666667
355,2017-02-11,0.17333333333333334,,0.17333333333333334
355,2017-02-12,0.006666666666666667,,0.006666666666666667
355,2017-02-13,0.0033333333333333335,,0.0033333333333333335
355,2017-02-14,0.09999999999999999,,0.09999999999999999
355,2017-02-15,0.030000000000000002,,0.030000000000000002
355,2017-02-16,0.08333333333333333,,0.08333333333333333
355,2017-02-17,0.26666666666666666,,0.26666666666666666
355,2017-02-18,0.39999999999999997,,0.39999999999999997
355,2017-02-19,20.283333333333335,,20.283333333333335
355,2017-02-20,57.50999999999999,,57.50999999999999
355,2017-02-21,44.85,,44.85
355,2017-02-22,32.623333333333335,,32.623333333333335
355,2017-02-23,50.28333333333333,,50.28333333333333
355,2017-02-24,50.69666666666666,,50.69666666666666
355,2017-02-25,41.589999999999996,,41.589999999999996
355,2017-02-26,31.08666666666667,,31.08666666666667
355,2017-02-27,53.406666666666666,,53.406666666666666
355,2017-02-28,51.77333333333333,,51.77333333333333
355,2017-03-01,15.060000000000002,,15.060000000000002
355,2017-03-02,52.28666666666667,,52.28666666666667
355,2017-03-03,52.19333333333333,,52.19333333333333
355,2017-03-04,62.09,,62.09
355,2017-03-05,71.15666666666667,,71.15666666666667
355,2017-03-06,57.36333333333334,,57.36333333333334
355,2017-03-07,8.6,,8.6
355,2017-03-08,39.91666666666667,,39.91666666666667
355,2017-03-09,47.086666666666666,,47.086666666666666
355,2017-03-10,1.4233333333333331,,1.4233333333333331
355,2017-03-11,5.066666666666667,,5.066666666666667
355,2017-03-12,11.406666666666666,,11.406666666666666
355,2017-03-13,45.96666666666666,,45.96666666666666
355,2017-03-14,0.0033333333333333335,,0.0033333333333333335
355,2017-03-15,0.0033333333333333335,,0.0033333333333333335
355,2017-03-16,0.0033333333333333335,,0.0033333333333333335
355,2017-03-17,0.0033333333333333335,,0.0033333333333333335
355,2017-03-18,0.0033333333333333335,,0.0033333333333333335
355,2017-03-19,0.016666666666666666,,0.016666666666666666
355,2017-03-20,0.08333333333333333,,0.08333333333333333
355,2017-03-21,1.2133333333333334,,1.2133333333333334
355,2017-03-22,12.773333333333335,,12.773333333333335
355,2017-03-23,23.36666666666667,,23.36666666666667
355,2017-03-24,10.229999999999999,,10.229999999999999
355,2017-03-25,10.386666666666667,,10.386666666666667
355,2017-03-26,9.94,,9.94
355,2017-03-27,28.94333333333334,,28.94333333333334
355,2017-03-28,6.586666666666667,,6.586666666666667
355,2017-03-29,64.24666666666667,,64.24666666666667
355,2017-03-30,65.73,,65.73
355,2017-03-31,9.436666666666666,,9.436666666666666
355,2017-04-01,37.313333333333325,,37.313333333333325
355,2017-04-02,73.91000000000001,,73.91000000000001
355,2017-04-03,57.676666666666655,,57.676666666666655
355,2017-04-04,15.543333333333335,,15.543333333333335
355,2017-04-05,65.12333333333332,,65.12333333333332
355,2017-04-06,5.7700000000000005,,5.7700000000000005
355,2017-04-07,42.63333333333334,,42.63333333333334
355,2017-04-08,85.96666666666665,,85.96666666666665
355,2017-04-09,89.13333333333333,,89.13333333333333
355,2017-04-10,73.63666666666667,,73.63666666666667
355,2017-04-11,77.86333333333334,,77.86333333333334
355,2017-04-12,49.26333333333334,,49.26333333333334
355,2017-04-13,71.95,,71.95
355,2017-04-14,87.33333333333333,,87.33333333333333
355,2017-04-15,71.78333333333335,,71.78333333333335
355,2017-04-16,73.99999999999999,,73.99999999999999
355,2017-04-17,70.81666666666668,,70.81666666666668
355,2017-04-18,94.32333333333334,,94.32333333333334
355,2017-04-19,49.62666666666666,,49.62666666666666
355,2017-04-20,54.88666666666666,,54.88666666666666
355,2017-04-21,20.26,,20.26
355,2017-04-22,39.95666666666668,,39.95666666666668
355,2017-04-23,95.35333333333334,,95.35333333333334
355,2017-04-24,59.85333333333333,,59.85333333333333
355,2017-04-25,19.10333333333333,,19.10333333333333
355,2017-04-26,28.97333333333333,,28.97333333333333
355,2017-04-27,28.263333333333332,,28.263333333333332
355,2017-04-28,70.27999999999999,,70.27999999999999
355,2017-04-29,49.29333333333333,,49.29333333333333
355,2017-04-30,27.14,,27.14
355,2017-05-01,30.75,,30.75
355,2017-05-02,38.510000000000005,,38.510000000000005
355,2017-05-03,63.66666666666668,,63.66666666666668
355,2017-05-04,55.803333333333335,,55.803333333333335
355,2017-05-05,9.993333333333334,,9.993333333333334
355,2017-05-06,30.29666666666667,,30.29666666666667
355,2017-05-07,39.95,,39.95
355,2017-05-08,53.13000000000002,,53.13000000000002
355,2017-05-09,55.16333333333335,,55.16333333333335
355,2017-05-10,65.24666666666667,,65.24666666666667
355,2017-05-11,73.56666666666668,,73.56666666666668
355,2017-05-12,67.23333333333333,,67.23333333333333
355,2017-05-13,11.6,,11.6
355,2017-05-14,59.50666666666666,,59.50666666666666
355,2017-05-15,73.67666666666668,,73.67666666666668
355,2017-05-16,64.76333333333334,,64.76333333333334
355,2017-05-17,80.23333333333333,,80.23333333333333
355,2017-05-18,75.64666666666666,,75.64666666666666
355,2017-05-19,86.42333333333335,,86.42333333333335
355,2017-05-20,72.16,,72.16
355,2017-05-21,94.01666666666667,,94.01666666666667
355,2017-05-22,15.833333333333336,,15.833333333333336
355,2017-05-23,57.07666666666666,,57.07666666666666
355,2017-05-24,69.83666666666666,,69.83666666666666
355,2017-05-25,18.773333333333337,,18.773333333333337
355,2017-05-26,65.15,,65.15
355,2017-05-27,52.02666666666667,,52.02666666666667
355,2017-05-28,52.893333333333345,,52.893333333333345
355,2017-05-29,19.35,,19.35
355,2017-05-30,21.939999999999998,,21.939999999999998
355,2017-05-31,75.57000000000001,,75.57000000000001
355,2017-06-01,90.05999999999999,,90.05999999999999
355,2017-06-02,89.60333333333334,,89.60333333333334
355,2017-06-03,93.87666666666665,,93.87666666666665
355,2017-06-04,38.85666666666666,,38.85666666666666
355,2017-06-05,31.386666666666667,,31.386666666666667
355,2017-06-06,32.37,,32.37
355,2017-06-07,99.13999999999999,,99.13999999999999
355,2017-06-08,85.38333333333337,,85.38333333333337
355,2017-06-09,68.96666666666667,,68.96666666666667
355,2017-06-10,85.87333333333333,,85.87333333333333
355,2017-06-11,98.69000000000001,,98.69000000000001
355,2017-06-12,97.84000000000002,,97.84000000000002
355,2017-06-13,88.89666666666665,,88.89666666666665
355,2017-06-14,104.12333333333333,,104.12333333333333
355,2017-06-15,61.11666666666665,,61.11666666666665
355,2017-06-16,21.45,,21.45
355,2017-06-17,55.26000000000001,,55.26000000000001
355,2017-06-18,72.80666666666666,,72.80666666666666
355,2017-06-19,47.646666666666675,,47.646666666666675
355,2017-06-20,89.27,,89.27
355,2017-06-21,76.26333333333332,,76.26333333333332
355,2017-06-22,95.79666666666668,,95.79666666666668
355,2017-06-23,60.81666666666667,,60.81666666666667
355,2017-06-24,91.69666666666666,,91.69666666666666
355,2017-06-25,89.31333333333333,,89.31333333333333
355,2017-06-26,87.81333333333333,,87.81333333333333
355,2017-06-27,69.23,,69.23
355,2017-06-28,94.93999999999998,,94.93999999999998
355,2017-06-29,73.97333333333333,,73.97333333333333
355,2017-06-30,64.81666666666668,,64.81666666666668
355,2017-07-01,66.09333333333335,,66.09333333333335
355,2017-07-02,88.56333333333335,,88.56333333333335
355,2017-07-03,93.03666666666665,,93.03666666666665
355,2017-07-04,97.58999999999999,,97.58999999999999
355,2017-07-05,92.98666666666666,,92.98666666666666
355,2017-07-06,73.61333333333333,,73.61333333333333
355,2017-07-07,62.10666666666666,,62.10666666666666
355,2017-07-08,71.48,,71.48
355,2017-07-09,97.06000000000002,,97.06000000000002
355,2017-07-10,85.98666666666668,,85.98666666666668
355,2017-07-11,62.99666666666667,,62.99666666666667
355,2017-07-12,63.20000000000001,,63.20000000000001
355,2017-07-13,45.0,,45.0
355,2017-07-14,30.926666666666662,,30.926666666666662
355,2017-07-15,76.00666666666667,,76.00666666666667
355,2017-07-16,93.91666666666667,,93.91666666666667
355,2017-07-17,84.17000000000003,,84.17000000000003
355,2017-07-18,84.30333333333333,,84.30333333333333
355,2017-07-19,98.90000000000002,,98.90000000000002
355,2017-07-20,79.30333333333336,,79.30333333333336
355,2017-07-21,90.92333333333335,,90.92333333333335
355,2017-07-22,57.70333333333334,,57.70333333333334
355,2017-07-23,55.153333333333336,,55.153333333333336
355,2017-07-24,35.47,,35.47
355,2017-07-25,48.30000000000001,,48.30000000000001
355,2017-07-26,74.29,,74.29
355,2017-07-27,36.88666666666667,,36.88666666666667
355,2017-07-28,71.24000000000002,,71.24000000000002